Location: Newark
(44.0692°N, 7.2567°E)
Time: 13:40:18
(UTC+00:00)

FO-29 - Visible Passes

Search period start: 22 October 2019 00:00
Search period end: 01 November 2019 00:00
Orbit: 801 x 1321 km, 98.6° (Epoch: 21 October)

Date Brightness Start Highest point End Pass type
(mag) Time Alt. Az. Time Alt. Az. Time Alt. Az.
22 Oct 12.1 01:06:43 18° N 01:06:43 18° N 01:08:26 10° N visible
22 Oct 12.6 17:21:05 10° NNW 17:22:43 11° NW 17:24:22 10° WNW visible
23 Oct 12.3 00:11:09 15° NNE 00:11:09 15° NNE 00:12:41 10° N visible
23 Oct 12.1 01:57:38 15° NNW 01:57:38 15° NNW 01:58:42 10° NNW visible
24 Oct 12.1 01:02:04 16° N 01:02:04 16° N 01:03:32 10° N visible
24 Oct 12.5 17:15:47 10° NNW 17:17:54 11° NW 17:19:59 10° WNW visible
25 Oct 12.4 00:06:29 14° NNE 00:06:29 14° NNE 00:07:43 10° N visible
25 Oct 12.1 01:52:59 14° NNW 01:52:59 14° NNW 01:53:49 10° NNW visible
26 Oct 12.2 00:57:25 15° N 00:57:25 15° N 00:58:37 10° N visible
26 Oct 12.5 17:10:37 10° NNW 17:13:04 12° NW 17:15:27 10° WNW visible
27 Oct 12.4 00:01:50 13° NNE 00:01:50 13° NNE 00:02:45 10° N visible
27 Oct 12.2 01:48:20 13° NNW 01:48:20 13° NNW 01:48:57 10° NNW visible
28 Oct 12.3 00:52:46 14° N 00:52:46 14° N 00:53:42 10° N visible
28 Oct 12.4 17:05:30 10° NNW 17:08:13 12° NW 17:10:52 10° WNW visible
28 Oct 12.5 23:57:13 12° NNE 23:57:13 12° NNE 23:57:47 10° N visible
29 Oct 12.3 01:43:42 12° NNW 01:43:42 12° NNW 01:44:04 10° NNW visible
30 Oct 12.4 00:48:08 13° N 00:48:08 13° N 00:48:46 10° N visible
30 Oct 12.4 17:00:25 10° NNW 17:03:22 13° NW 17:06:14 10° WNW visible
30 Oct 12.6 23:52:35 11° NNE 23:52:35 11° NNE 23:52:47 10° N visible
31 Oct 12.4 01:39:05 10° NNW 01:39:05 10° NNW 01:39:11 10° NNW visible
